Location: Bemmer
(51.5498°N, 5.6249°E)
Time: 03:05:26
(UTC+00:00)

Cosmos 2360 Rocket - Pass Details

Date: 03 March 2021
Orbit: 832 x 846 km, 71.0° (Epoch: 13 April)

Event Time Altitude Azimuth Distance (km) Brightness Sun altitude
Rises 18:37:55 0° 191° (S) 3,377 5.4 -12.6°
Reaches altitude 10° 18:40:24 10° 186° (S) 2,449 4.6 -13.0°
Maximum altitude 18:45:49 52° 112° (ESE) 1,041 2.3 -13.9°
Drops below altitude 10° 18:51:19 10° 37° (NE) 2,474 4.3 -14.7°
Sets 18:53:49 0° 33° (NNE) 3,415 5.1 -15.1°
